Location: Sortland
(68.7020°N, 15.4240°E)
Time: 03:19:54
(UTC+01:00)

Envisat - Pass Details

Date: 23 October 2019
Orbit: 764 x 766 km, 98.1° (Epoch: 19 November)

Event Time Altitude Azimuth Distance (km) Brightness Sun altitude
Rises 21:05:29 0° 232° (SW) 3,236 6.5 -23.2°
Reaches altitude 10° 21:09:00 10° 257° (WSW) 2,314 6.1 -23.5°
Maximum altitude 21:11:37 14° 288° (WNW) 2,050 6.1 -23.7°
Drops below altitude 10° 21:14:15 10° 320° (NW) 2,320 6.5 -23.9°
Sets 21:17:47 0° 345° (NNW) 3,251 7.0 -24.1°
